Weather in Zadono-Kagalnitskaya

Russia / Rostov Oblast     47°31′25″N   41°17′42″E
temp.,
°C
wind,
m/s
gust,
m/s
humid.,
%
clouds,
%
prec.,
mm/h
press.,
hPa
HPBL,
m
19 may, wed
wed1900:00+14sse358899 0.0 100980
03:00+13sse3491100 0.0 100961
06:00+15e2490100 0.0 1008135
09:00+14s4999100 10.8 1008529
12:00+13sw81495100 15.2 1011718
15:00+18sw7117089 16.1 10121581
18:00+17ssw711805 1.1 10121001
21:00+13ssw6148987 1.6 1012608
20 may, thu
thu2000:00+13ssw7149097 0.0 1012656
03:00+13sw71488100 0.0 1012765
06:00+12ssw714905 0.0 1013632
09:00+17sw8127499 0.0 10131080
12:00+20sw8116253 0.1 10131773
15:00+21wsw596139 0.1 10131590
18:00+20wsw35675 0.0 1014269
21:00+15s337994 0.0 101421
21 may, fri
fri2100:00+15ene2275100 0.0 101418
03:00+14e4880100 0.0 1014121
06:00+14e51080100 0.0 1014219
09:00+20e71159100 0.0 1013592
12:00+23ese795583 0.0 1012985
15:00+27ese68515 0.0 10111161
18:00+25ene496759 0.0 1009223
21:00+21ese616615 0.0 1010369
22 may, sat
sat2200:00+17e5126729 0.0 1009259
03:00+15e512685 0.0 1009222
06:00+15e411765 0.0 1008227
09:00+21ese456490 0.0 1009471
12:00+26ese345413 0.0 1009894
15:00+28ene3452100 0.0 10081108
18:00+27nw476732 0.0 1008167
21:00+22nne61272100 0.0 1007199
23 may, sun
sun2300:00+20e4968100 0.0 1007141
03:00+18e41163100 0.0 1006183
06:00+18e3870100 0.0 1006156
09:00+24ese475644 0.0 1006428
12:00+27ese5749100 0.0 10051079
15:00+29ssw334562 0.0 1004971
18:00+27wsw34640 0.0 1003145
21:00+22wsw347896 0.0 100649